CST,Max TemperatureF,Mean TemperatureF,Min TemperatureF,Max Dew PointF,MeanDew PointF,Min DewpointF,Max Humidity, Mean Humidity, Min Humidity, Max Sea Level PressureIn, Mean Sea Level PressureIn, Min Sea Level PressureIn, Max VisibilityMiles, Mean VisibilityMiles, Min VisibilityMiles, Max Wind SpeedMPH, Mean Wind SpeedMPH, Max Gust SpeedMPH,PrecipitationIn, CloudCover, Events, WindDirDegrees
2013-1-1,46,42,37,43,41,34,100,90,79,30.22,30.11,30.02,10,5,0,12,6,,0.01,8,Fog-Rain,344
2013-1-2,39,37,34,34,32,28,89,83,76,30.32,30.28,30.25,10,7,5,12,5,15,0.00,5,,302
2013-1-3,48,37,26,32,28,24,92,69,45,30.46,30.40,30.32,10,9,6,12,3,16,0.00,0,,336
2013-1-4,51,40,29,33,28,18,92,61,29,30.53,30.45,30.39,10,10,10,10,2,15,T,5,,16
2013-1-5,48,42,36,37,35,30,97,76,61,30.39,30.32,30.26,10,10,4,9,3,,0.00,5,,202
2013-1-6,57,44,30,39,32,25,100,68,35,30.37,30.32,30.29,10,4,0,9,3,13,0.00,1,Fog,248
2013-1-7,52,39,26,30,27,23,92,62,32,30.42,30.30,30.17,10,10,10,10,3,15,0.00,0,,87
2013-1-8,52,44,36,51,43,32,100,88,76,30.20,30.10,30.03,10,6,1,12,4,17,0.38,8,Rain,64
2013-1-9,54,52,49,54,51,48,100,97,93,30.21,30.16,30.08,10,4,1,16,9,25,0.46,8,Rain,60
2013-1-10,68,59,49,61,55,45,100,79,58,30.10,29.99,29.86,10,6,0,20,8,29,0.04,6,Fog-Rain,128
2013-1-11,70,58,46,53,47,44,93,69,45,30.00,29.93,29.86,10,10,10,17,9,23,0.00,1,,181
2013-1-12,72,59,45,68,61,43,100,86,72,29.90,29.80,29.67,10,6,0,24,11,35,1.35,8,Fog-Rain-Thunderstorm,190
2013-1-13,47,40,32,42,36,25,96,81,65,30.27,30.06,29.82,10,9,2,17,9,22,0.16,5,Rain,333
2013-1-14,42,36,29,25,21,17,78,59,39,30.39,30.29,30.25,10,10,10,16,9,23,0.01,2,,36
2013-1-15,35,32,28,31,26,17,92,75,58,30.27,30.19,30.12,10,8,2,17,8,26,0.16,7,Rain,20
2013-1-16,48,41,34,30,24,18,89,60,31,30.23,30.18,30.12,10,10,10,13,6,15,0.00,3,,303
2013-1-17,60,45,29,32,27,21,69,50,31,30.50,30.36,30.23,10,10,10,14,6,18,0.00,0,,329
2013-1-18,57,43,28,31,26,21,100,65,30,30.57,30.46,30.33,10,10,10,15,5,18,0.00,0,,144
2013-1-19,61,54,43,53,45,39,86,72,57,30.33,30.26,30.19,10,10,10,12,7,,0.00,0,,202
2013-1-20,41,,41,40,40,40,93,91,89,30.26,30.19,30.12,10,10,10,6,3,16,0.00,0,,166
2013-1-21,52,45,37,43,32,25,100,70,39,30.32,30.25,30.15,10,10,5,20,5,26,0.00,3,,68
2013-1-22,50,40,30,31,26,23,76,59,42,30.38,30.32,30.27,10,10,10,9,3,13,0.00,2,,84
2013-1-23,73,54,35,49,40,29,82,62,41,30.32,30.24,30.16,10,10,10,16,4,21,0.00,2,,196
2013-1-24,58,51,44,54,46,35,100,85,70,30.27,30.22,30.15,10,5,1,15,7,20,T,7,Rain,80
2013-1-25,54,48,42,54,44,36,100,85,70,30.22,30.14,30.05,10,3,0,14,4,16,0.01,8,Fog-Rain,62
2013-1-26,45,44,42,43,42,41,100,96,92,30.29,30.23,30.19,7,2,1,10,6,18,0.43,8,Rain,78
2013-1-27,70,57,43,61,52,43,100,85,70,30.19,30.12,30.01,10,5,0,16,7,21,0.00,5,Fog,143
2013-1-28,75,69,63,63,62,61,93,79,64,30.09,30.03,29.93,10,10,7,17,11,26,0.02,7,Rain,169
2013-1-29,73,63,53,66,62,51,100,87,73,29.94,29.70,29.50,10,7,2,31,14,41,0.64,7,Rain-Thunderstorm,189
2013-1-30,54,45,36,52,34,25,83,64,45,30.13,29.87,29.62,10,10,9,30,14,39,T,4,Rain,270
2013-1-31,62,47,32,30,26,22,82,51,20,30.32,30.18,30.12,10,10,10,18,9,24,0.00,0,,227